N88CD LRCL-LROP

Flight info

Callsign N88CD
Flight time 0h 59m
Altitude 20000
Route IRLOX DCT BIVBU DCT TOSVI
Aircraft PC12/L-VGD/C

Departure

Time 2026-04-30 20:48
Airport Avram Iancu Cluj International Airport (LRCL)

Arrival

Time 2026-04-30 21:47
Airport Bucharest Henri Coandă International Airport (LROP)
Time Latitude Longitude Altitude Speed Heading
2026-04-30 20:43 46.78337 23.68627 1039 ft 0 kts 167°
2026-04-30 20:44 46.78326 23.68632 1039 ft 7 kts 152°
2026-04-30 20:44 46.78438 23.68655 1039 ft 13 kts 349°
2026-04-30 20:45 46.78495 23.68456 1039 ft 16 kts 259°
2026-04-30 20:45 46.78485 23.68287 1039 ft 17 kts 291°
2026-04-30 20:45 46.78496 23.68116 1039 ft 19 kts 249°
2026-04-30 20:46 46.78379 23.67536 1039 ft 23 kts 313°
2026-04-30 20:46 46.78471 23.67528 1039 ft 15 kts 268°
2026-04-30 20:47 46.78595 23.67741 1039 ft 46 kts 73°
2026-04-30 20:47 46.78745 23.68426 1039 ft 92 kts 74°
2026-04-30 20:48 46.79235 23.70681 1354 ft 143 kts 90°
2026-04-30 20:48 46.78823 23.72058 1557 ft 167 kts 145°
2026-04-30 20:48 46.77676 23.72346 1982 ft 176 kts 188°
2026-04-30 20:48 46.76422 23.72140 2423 ft 186 kts 181°
2026-04-30 20:49 46.75106 23.72307 2834 ft 193 kts 168°
2026-04-30 20:49 46.73846 23.72979 3222 ft 198 kts 154°
2026-04-30 20:49 46.72615 23.73928 3610 ft 201 kts 151°
2026-04-30 20:50 46.70101 23.75855 4386 ft 206 kts 152°
2026-04-30 20:50 46.68812 23.76815 4781 ft 208 kts 152°
2026-04-30 20:50 46.67518 23.77783 5175 ft 210 kts 152°
2026-04-30 20:50 46.66208 23.78765 5566 ft 212 kts 152°
2026-04-30 20:51 46.64912 23.79734 5949 ft 213 kts 151°
2026-04-30 20:51 46.62253 23.81722 6744 ft 216 kts 151°
2026-04-30 20:51 46.60907 23.82727 7130 ft 218 kts 151°
2026-04-30 20:52 46.59573 23.83723 7504 ft 219 kts 151°
2026-04-30 20:52 46.58210 23.84740 7897 ft 221 kts 151°
2026-04-30 20:52 46.55453 23.86795 8686 ft 224 kts 151°
2026-04-30 20:53 46.54056 23.87835 9088 ft 225 kts 151°
2026-04-30 20:53 46.52654 23.88879 9496 ft 227 kts 151°
2026-04-30 20:53 46.51241 23.89930 9909 ft 229 kts 151°
2026-04-30 20:54 46.48395 23.92045 10690 ft 231 kts 151°
2026-04-30 20:54 46.46972 23.93102 11061 ft 233 kts 151°
2026-04-30 20:54 46.45527 23.94174 11442 ft 234 kts 150°
2026-04-30 20:55 46.42601 23.96344 12219 ft 237 kts 150°
2026-04-30 20:55 46.41123 23.97439 12620 ft 238 kts 150°
2026-04-30 20:55 46.39655 23.98525 13012 ft 240 kts 150°
2026-04-30 20:56 46.36658 24.00742 13844 ft 243 kts 150°
2026-04-30 20:56 46.35152 24.01854 14238 ft 243 kts 150°
2026-04-30 20:56 46.32119 24.04094 14979 ft 245 kts 149°
2026-04-30 20:57 46.30621 24.05198 15349 ft 246 kts 149°
2026-04-30 20:57 46.29067 24.06344 15736 ft 247 kts 149°
2026-04-30 20:57 46.27530 24.07476 16122 ft 248 kts 149°
2026-04-30 20:58 46.24438 24.09751 16914 ft 249 kts 149°
2026-04-30 20:58 46.22906 24.10877 17314 ft 250 kts 149°
2026-04-30 20:58 46.21357 24.12015 17714 ft 251 kts 149°
2026-04-30 20:58 46.19797 24.13161 18137 ft 252 kts 149°
2026-04-30 20:59 46.16662 24.15460 18930 ft 253 kts 149°
2026-04-30 20:59 46.15060 24.16638 19025 ft 266 kts 149°
2026-04-30 21:00 46.11614 24.19159 19039 ft 287 kts 150°
2026-04-30 21:00 46.07997 24.21798 19038 ft 297 kts 150°
2026-04-30 21:01 46.04278 24.24512 19038 ft 301 kts 150°
2026-04-30 21:01 46.02410 24.25873 19113 ft 300 kts 150°
2026-04-30 21:01 45.98736 24.28551 19330 ft 297 kts 150°
2026-04-30 21:02 45.96890 24.29897 19330 ft 298 kts 150°
2026-04-30 21:02 45.95032 24.31244 19331 ft 297 kts 150°
2026-04-30 21:02 45.93187 24.32581 19333 ft 296 kts 150°
2026-04-30 21:02 45.91355 24.33912 19332 ft 295 kts 150°
2026-04-30 21:03 45.89525 24.35241 19336 ft 294 kts 150°
2026-04-30 21:03 45.87722 24.36547 19335 ft 294 kts 150°
2026-04-30 21:03 45.85876 24.37884 19337 ft 293 kts 150°
2026-04-30 21:03 45.84054 24.39202 19338 ft 293 kts 150°
2026-04-30 21:04 45.82845 24.40076 19339 ft 293 kts 150°
2026-04-30 21:04 45.81027 24.41391 19345 ft 293 kts 150°
2026-04-30 21:04 45.76796 24.44445 19348 ft 293 kts 150°
2026-04-30 21:05 45.74979 24.45756 19346 ft 292 kts 150°
2026-04-30 21:05 45.73750 24.46641 19349 ft 292 kts 150°
2026-04-30 21:05 45.71339 24.48377 19356 ft 292 kts 150°
2026-04-30 21:05 45.69516 24.49689 19358 ft 292 kts 150°
2026-04-30 21:06 45.68305 24.50559 19358 ft 293 kts 150°
2026-04-30 21:06 45.65896 24.52290 19362 ft 293 kts 150°
2026-04-30 21:06 45.64667 24.53173 19365 ft 293 kts 150°
2026-04-30 21:06 45.62842 24.54482 19368 ft 294 kts 150°
2026-04-30 21:07 45.61032 24.55780 19367 ft 294 kts 151°
2026-04-30 21:07 45.59197 24.57095 19367 ft 295 kts 150°
2026-04-30 21:07 45.57360 24.58410 19366 ft 295 kts 151°
2026-04-30 21:07 45.55526 24.59721 19362 ft 294 kts 150°
2026-04-30 21:08 45.53692 24.61032 19365 ft 294 kts 151°
2026-04-30 21:08 45.51863 24.62339 19367 ft 294 kts 150°
2026-04-30 21:08 45.50033 24.63646 19366 ft 293 kts 151°
2026-04-30 21:08 45.48232 24.64930 19362 ft 293 kts 151°
2026-04-30 21:09 45.46410 24.66229 19369 ft 293 kts 150°
2026-04-30 21:09 45.44580 24.67533 19363 ft 293 kts 151°
2026-04-30 21:09 45.42757 24.68830 19365 ft 293 kts 151°
2026-04-30 21:09 45.40930 24.70130 19365 ft 293 kts 151°
2026-04-30 21:10 45.39104 24.71428 19366 ft 294 kts 151°
2026-04-30 21:10 45.37275 24.72727 19368 ft 293 kts 151°
2026-04-30 21:10 45.35467 24.74010 19372 ft 294 kts 151°
2026-04-30 21:10 45.33635 24.75309 19363 ft 294 kts 151°
2026-04-30 21:11 45.31804 24.76606 19373 ft 293 kts 151°
2026-04-30 21:11 45.29970 24.77905 19370 ft 294 kts 151°
2026-04-30 21:11 45.28139 24.79201 19373 ft 294 kts 151°
2026-04-30 21:11 45.26302 24.80500 19373 ft 294 kts 151°
2026-04-30 21:12 45.24470 24.81794 19371 ft 295 kts 151°
2026-04-30 21:12 45.22655 24.83076 19373 ft 294 kts 151°
2026-04-30 21:12 45.20823 24.84368 19369 ft 294 kts 151°
2026-04-30 21:12 45.18978 24.85670 19369 ft 294 kts 151°
2026-04-30 21:13 45.17168 24.86945 19373 ft 294 kts 151°
2026-04-30 21:13 45.15315 24.88250 19379 ft 294 kts 151°
2026-04-30 21:13 45.13500 24.89527 19367 ft 294 kts 151°
2026-04-30 21:13 45.11667 24.90815 19369 ft 294 kts 151°
2026-04-30 21:14 45.09833 24.92103 19367 ft 294 kts 151°
2026-04-30 21:14 45.07996 24.93392 19367 ft 294 kts 151°
2026-04-30 21:14 45.06162 24.94679 19363 ft 294 kts 151°
2026-04-30 21:14 45.04325 24.95967 19367 ft 294 kts 151°
2026-04-30 21:15 45.02495 24.97248 19368 ft 294 kts 151°
2026-04-30 21:15 45.00679 24.98519 19368 ft 294 kts 151°
2026-04-30 21:15 44.98846 24.99802 19365 ft 294 kts 151°
2026-04-30 21:15 44.97010 25.01086 19373 ft 294 kts 151°
2026-04-30 21:16 44.95174 25.02368 19372 ft 294 kts 152°
2026-04-30 21:16 44.93336 25.03651 19367 ft 294 kts 152°
2026-04-30 21:16 44.91500 25.04931 19373 ft 294 kts 152°
2026-04-30 21:16 44.89665 25.06211 19368 ft 294 kts 152°
2026-04-30 21:17 44.87833 25.07486 19366 ft 294 kts 152°
2026-04-30 21:17 44.86000 25.08766 19374 ft 294 kts 152°
2026-04-30 21:17 44.84165 25.10041 19372 ft 294 kts 152°
2026-04-30 21:17 44.82331 25.11314 19377 ft 294 kts 152°
2026-04-30 21:18 44.80512 25.12577 19378 ft 294 kts 152°
2026-04-30 21:18 44.78679 25.13850 19377 ft 294 kts 152°
2026-04-30 21:18 44.76906 25.15258 19364 ft 291 kts 139°
2026-04-30 21:18 44.75571 25.17344 19363 ft 285 kts 117°
2026-04-30 21:19 44.74825 25.19876 19344 ft 277 kts 98°
2026-04-30 21:19 44.74414 25.22532 19225 ft 280 kts 96°
2026-04-30 21:19 44.74015 25.25246 19106 ft 283 kts 97°
2026-04-30 21:19 44.73607 25.27940 19048 ft 283 kts 97°
2026-04-30 21:20 44.73193 25.30629 19047 ft 281 kts 97°
2026-04-30 21:20 44.72782 25.33313 19048 ft 279 kts 97°
2026-04-30 21:20 44.72375 25.35984 19046 ft 278 kts 98°
2026-04-30 21:20 44.71973 25.38616 19043 ft 278 kts 98°
2026-04-30 21:21 44.71562 25.41299 19044 ft 277 kts 98°
2026-04-30 21:21 44.71182 25.43911 19031 ft 275 kts 95°
2026-04-30 21:21 44.71493 25.49414 17983 ft 289 kts 79°
2026-04-30 21:22 44.71719 25.52181 17432 ft 278 kts 81°
2026-04-30 21:22 44.72330 25.59913 15733 ft 257 kts 82°
2026-04-30 21:23 44.72531 25.62405 15095 ft 255 kts 82°
2026-04-30 21:23 44.72727 25.64872 14470 ft 253 kts 83°
2026-04-30 21:23 44.73116 25.69753 13155 ft 249 kts 82°
2026-04-30 21:24 44.73319 25.72157 12530 ft 245 kts 81°
2026-04-30 21:24 44.73531 25.74512 11931 ft 241 kts 80°
2026-04-30 21:24 44.73467 25.76826 11279 ft 241 kts 107°
2026-04-30 21:24 44.72459 25.78691 10650 ft 243 kts 139°
2026-04-30 21:25 44.69361 25.80180 9402 ft 237 kts 175°
2026-04-30 21:25 44.67732 25.80274 8796 ft 232 kts 176°
2026-04-30 21:25 44.66137 25.80117 8186 ft 230 kts 194°
2026-04-30 21:26 44.63815 25.77328 7024 ft 225 kts 247°
2026-04-30 21:26 44.63454 25.75212 6440 ft 220 kts 266°
2026-04-30 21:27 44.63140 25.70942 5306 ft 217 kts 266°
2026-04-30 21:27 44.62976 25.68864 4756 ft 216 kts 266°
2026-04-30 21:27 44.62808 25.66754 4196 ft 214 kts 266°
2026-04-30 21:28 44.62502 25.62943 3917 ft 174 kts 266°
2026-04-30 21:28 44.62374 25.61337 3918 ft 155 kts 266°
2026-04-30 21:28 44.62154 25.58581 3919 ft 133 kts 267°
2026-04-30 21:29 44.62054 25.57334 3921 ft 124 kts 267°
2026-04-30 21:29 44.61705 25.52917 3942 ft 182 kts 266°
2026-04-30 21:30 44.61417 25.49363 3937 ft 184 kts 265°
2026-04-30 21:31 44.59155 25.46356 4022 ft 140 kts 172°
2026-04-30 21:31 44.57014 25.46686 4849 ft 171 kts 169°
2026-04-30 21:32 44.54641 25.47039 5626 ft 166 kts 168°
2026-04-30 21:32 44.53512 25.47221 6000 ft 162 kts 168°
2026-04-30 21:32 44.52330 25.47412 6031 ft 180 kts 169°
2026-04-30 21:32 44.51028 25.47614 6040 ft 196 kts 169°
2026-04-30 21:33 44.49628 25.47826 6036 ft 208 kts 170°
2026-04-30 21:33 44.46627 25.48282 6040 ft 224 kts 170°
2026-04-30 21:33 44.45081 25.48578 6129 ft 219 kts 160°
2026-04-30 21:34 44.43822 25.49625 6128 ft 210 kts 126°
2026-04-30 21:34 44.43871 25.52960 5676 ft 167 kts 50°
2026-04-30 21:34 44.44650 25.54053 5597 ft 151 kts 43°
2026-04-30 21:35 44.45432 25.55010 5572 ft 150 kts 41°
2026-04-30 21:35 44.46250 25.55978 5706 ft 158 kts 40°
2026-04-30 21:35 44.47113 25.56984 5846 ft 165 kts 40°
2026-04-30 21:35 44.48012 25.58017 5968 ft 170 kts 40°
2026-04-30 21:36 44.48949 25.59082 6023 ft 179 kts 39°
2026-04-30 21:36 44.49922 25.60180 6020 ft 171 kts 39°
2026-04-30 21:37 44.52442 25.63025 6025 ft 157 kts 41°
2026-04-30 21:37 44.52861 25.64279 6018 ft 138 kts 82°
2026-04-30 21:37 44.52901 25.65570 6017 ft 131 kts 81°
2026-04-30 21:37 44.52960 25.66830 6016 ft 131 kts 81°
2026-04-30 21:38 44.53023 25.68112 6020 ft 130 kts 81°
2026-04-30 21:38 44.53087 25.69379 6022 ft 130 kts 81°
2026-04-30 21:38 44.53163 25.70639 6016 ft 130 kts 80°
2026-04-30 21:38 44.53246 25.71947 5810 ft 142 kts 80°
2026-04-30 21:39 44.53340 25.73335 5551 ft 141 kts 80°
2026-04-30 21:39 44.53432 25.74698 5290 ft 139 kts 80°
2026-04-30 21:39 44.53523 25.76036 4977 ft 140 kts 80°
2026-04-30 21:39 44.53619 25.77422 4628 ft 142 kts 80°
2026-04-30 21:40 44.53720 25.78797 4301 ft 139 kts 80°
2026-04-30 21:40 44.53820 25.80116 4032 ft 131 kts 80°
2026-04-30 21:40 44.53907 25.81278 4019 ft 113 kts 80°
2026-04-30 21:40 44.53985 25.82372 3805 ft 112 kts 80°
2026-04-30 21:41 44.54067 25.83457 3573 ft 112 kts 80°
2026-04-30 21:41 44.54146 25.84474 3521 ft 99 kts 80°
2026-04-30 21:41 44.54212 25.85381 3516 ft 88 kts 80°
2026-04-30 21:41 44.54278 25.86274 3527 ft 97 kts 80°
2026-04-30 21:42 44.54364 25.87263 3537 ft 105 kts 79°
2026-04-30 21:42 44.54471 25.88351 3213 ft 117 kts 79°
2026-04-30 21:42 44.54580 25.89440 3020 ft 106 kts 79°
2026-04-30 21:42 44.54672 25.90394 3022 ft 96 kts 79°
2026-04-30 21:43 44.54768 25.91314 3024 ft 95 kts 78°
2026-04-30 21:43 44.54835 25.91935 2935 ft 98 kts 78°
2026-04-30 21:43 44.54987 25.93293 2426 ft 113 kts 78°
2026-04-30 21:43 44.55123 25.94411 2059 ft 118 kts 78°
2026-04-30 21:44 44.55254 25.95462 1934 ft 106 kts 78°
2026-04-30 21:44 44.55397 25.96449 1825 ft 95 kts 76°
2026-04-30 21:44 44.55523 25.97313 1692 ft 93 kts 76°
2026-04-30 21:44 44.55658 25.98245 1450 ft 101 kts 76°
2026-04-30 21:45 44.55787 25.99164 1336 ft 95 kts 77°
2026-04-30 21:45 44.55897 26.00074 1274 ft 102 kts 80°
2026-04-30 21:45 44.55995 26.01065 1207 ft 102 kts 80°
2026-04-30 21:45 44.56075 26.02052 998 ft 103 kts 84°
2026-04-30 21:46 44.56138 26.03037 853 ft 99 kts 83°
2026-04-30 21:46 44.56211 26.03986 818 ft 99 kts 83°
2026-04-30 21:46 44.56274 26.04982 702 ft 104 kts 85°
2026-04-30 21:46 44.56342 26.05992 579 ft 102 kts 84°
2026-04-30 21:47 44.56416 26.06964 435 ft 99 kts 84°
2026-04-30 21:47 44.56485 26.07903 321 ft 96 kts 84°
2026-04-30 21:47 44.56539 26.08578 319 ft 9 kts 52°
2026-04-30 21:47 44.56613 26.08595 318 ft 19 kts 354°
2026-04-30 21:48 44.56727 26.08576 317 ft 0 kts 353°
2026-04-30 21:50 44.56737 26.08575 317 ft 7 kts 353°
2026-04-30 21:50 44.56840 26.08560 317 ft 22 kts 353°
2026-04-30 21:50 44.56977 26.08541 317 ft 20 kts 357°
2026-04-30 21:51 44.57096 26.08526 317 ft 16 kts 353°
2026-04-30 21:51 44.57143 26.08519 317 ft 12 kts 355°
2026-04-30 21:51 44.57227 26.08506 317 ft 9 kts 350°
2026-04-30 21:51 44.57328 26.08492 317 ft 18 kts 352°
2026-04-30 21:52 44.57434 26.08473 317 ft 13 kts 357°
2026-04-30 21:52 44.57503 26.08586 317 ft 21 kts 85°
2026-04-30 21:52 44.57521 26.08817 317 ft 25 kts 84°
2026-04-30 21:52 44.57541 26.09091 317 ft 31 kts 84°
2026-04-30 21:53 44.57566 26.09407 317 ft 28 kts 83°
2026-04-30 21:53 44.57582 26.09606 317 ft 23 kts 84°
2026-04-30 21:53 44.57552 26.09815 317 ft 26 kts 152°
2026-04-30 21:53 44.57378 26.09851 317 ft 18 kts 174°
2026-04-30 21:54 44.57351 26.09816 317 ft 10 kts 274°
2026-04-30 21:54 44.57337 26.09753 317 ft 10 kts 172°
2026-04-30 21:54 44.57322 26.09756 317 ft 0 kts 173°